Weather History for Strasbourg, France

Change the Weather History Date:

Sunday, December 9, 2012

  Actual Average Record
Temperature  
Mean Temperature 24 °F -  
Max Temperature 35 °F 39 °F 57 °F (2000)
Min Temperature 14 °F 30 °F 14 °F (2012)
Degree Days  
Heating Degree Days 40    
Moisture  
Dew Point 25 °F    
Average Humidity 91    
Maximum Humidity 100    
Minimum Humidity 77    
Precipitation  
Precipitation 0.00 in 0.05 in - ()
Sea Level Pressure  
Sea Level Pressure 30.18 in    
Wind  
Wind Speed 5 mph ()    
Max Wind Speed 17 mph    
Max Gust Speed 26 mph    
Visibility 4.6 miles    
Events Fog , Rain , Snow    
Averages and records for this station are not official NWS values.
T = Trace of Precipitation, MM = Missing Value Source: Averaged Metar Reports

Daily Weather History Graph

Daily Weather History Graph

Search for Another Location

Airport:

Trip Planner

Search our weather history database for the weather conditions in past years. The results will help you decide how hot, cold, wet, or windy it might be!

Date:

Astronomy

Dec. 09, 2012 Rise Set
Actual Time 8:09 AM CET 4:33 PM CET
Civil Twilight 7:33 AM CET 5:10 PM CET
Nautical Twilight 6:53 AM CET 5:50 PM CET
Astronomical Twilight 6:15 AM CET 6:28 PM CET
Moon 3:06 AM CET (12/9) 1:45 PM CET (12/9)
Length of Visible Light 9h 37m
Length of Day
8h 24m
Waning Crescent, 21% of the Moon is Illuminated
Dec 9
Waning Crescent
Dec 13
New
Dec 20
First Quarter
Dec 28
Full
Jan 5
Last Quarter

Hourly Weather History & Observations

Time (CET) Temp. Windchill Dew Point Humidity Pressure Visibility Wind Dir Wind Speed Gust Speed Precip Events Conditions
12:00 AM 19.4 °F - 17.6 °F 93% 30.33 in 0.2 mi Calm Calm - N/A Fog Light Freezing Fog
12:30 AM 17.6 °F - 17.6 °F 100% 30.33 in 0.2 mi Calm Calm - N/A Fog Light Freezing Fog
1:00 AM 17 °F - 16 °F 96% 30.39 in 0 mi SSE 1.2 mph - - Fog Heavy Fog
1:00 AM 17.6 °F - 15.8 °F 93% 30.33 in 0.4 mi Calm Calm - N/A Fog Light Freezing Fog
1:30 AM 17.6 °F - 15.8 °F 93% 30.33 in 0.7 mi Variable 1.2 mph - N/A Fog Light Freezing Fog
2:00 AM 15.8 °F - 15.8 °F 100% 30.33 in - West 1.2 mph - N/A   Partly Cloudy
2:30 AM 17.6 °F - 15.8 °F 93% 30.36 in 1.8 mi NW 2.3 mph - N/A   Partly Cloudy
3:00 AM 15.8 °F - 14.0 °F 93% 30.33 in 0.9 mi Variable 2.3 mph - N/A   Mist
3:30 AM 17.6 °F 10.7 °F 17.6 °F 100% 30.33 in 2.8 mi WSW 4.6 mph - N/A   Partly Cloudy
4:00 AM 17.6 °F - 15.8 °F 93% 30.33 in - Variable 1.2 mph - N/A   Mostly Cloudy
4:30 AM 19.4 °F - 17.6 °F 93% 30.33 in - SSE 2.3 mph - N/A   Mostly Cloudy
5:00 AM 19.4 °F - 17.6 °F 93% 30.33 in - Calm Calm - N/A   Mist
5:30 AM 17.6 °F - 15.8 °F 93% 30.33 in - Variable 2.3 mph - N/A   Mist
6:00 AM 19.4 °F - 19.4 °F 100% 30.30 in - Variable 2.3 mph - N/A   Mist
6:30 AM 19.4 °F - 19.4 °F 100% 30.30 in 3.1 mi Variable 2.3 mph - N/A   Mist
7:00 AM 18 °F - 17 °F 93% 30.37 in 2 mi West 1.2 mph - -   Mist
7:00 AM 19.4 °F - 17.6 °F 93% 30.30 in - Calm Calm - N/A   Mist
7:30 AM 17.6 °F 9.3 °F 15.8 °F 93% 30.30 in 3.1 mi South 5.8 mph - N/A   Mist
8:00 AM 21.2 °F - 21.2 °F 100% 30.30 in 3.1 mi Variable 2.3 mph - N/A   Overcast
8:30 AM 23.0 °F 18.4 °F 21.2 °F 93% 30.30 in 3.1 mi South 3.5 mph - N/A   Overcast
9:00 AM 24.8 °F 20.5 °F 23.0 °F 93% 30.30 in 3.1 mi Variable 3.5 mph - N/A   Overcast
9:30 AM 24.8 °F 17.9 °F 24.8 °F 100% 30.27 in - South 5.8 mph - N/A   Overcast
10:00 AM 26.6 °F 16.8 °F 24.8 °F 93% 30.27 in - South 10.4 mph - N/A   Mist
10:30 AM 28.4 °F 18.5 °F 24.8 °F 86% 30.24 in 5.0 mi South 11.5 mph - N/A   Mostly Cloudy
11:00 AM 28.4 °F 19.1 °F 24.8 °F 86% 30.24 in 6.2 mi South 10.4 mph - N/A   Overcast
11:30 AM 30.2 °F 20.2 °F 24.8 °F 80% 30.21 in 6.2 mi South 12.7 mph - N/A   Overcast
12:00 PM 30.2 °F 20.8 °F 24.8 °F 80% 30.21 in 6.2 mi South 11.5 mph - N/A   Mostly Cloudy
12:30 PM 30.2 °F 19.8 °F 26.6 °F 86% 30.18 in 6.2 mi South 13.8 mph - N/A   Overcast
1:00 PM 31 °F - 27 °F 77% 30.22 in 7 mi South 11.5 mph - -   Clear
1:00 PM 32.0 °F 23.0 °F 26.6 °F 80% 30.18 in 6.2 mi South 11.5 mph - N/A   Mostly Cloudy
1:30 PM 32.0 °F 23.0 °F 28.4 °F 87% 30.15 in 6.2 mi South 11.5 mph - N/A   Mostly Cloudy
2:00 PM 33.8 °F 24.8 °F 28.4 °F 81% 30.12 in 6.2 mi South 12.7 mph - N/A   Overcast
2:30 PM 33.8 °F 24.8 °F 28.4 °F 81% 30.12 in 6.2 mi South 12.7 mph - N/A   Overcast
3:00 PM 33.8 °F 24.8 °F 28.4 °F 81% 30.09 in 6.2 mi South 12.7 mph - N/A Rain , Snow Light Snow
3:30 PM 33.8 °F 23.9 °F 30.2 °F 87% 30.09 in 6.2 mi South 15.0 mph - N/A Snow Light Snow
4:00 PM 33.8 °F 23.9 °F 30.2 °F 87% 30.06 in 6.2 mi South 15.0 mph - N/A Rain , Snow Light Snow
4:30 PM 33.8 °F 23.5 °F 30.2 °F 87% 30.06 in 6.2 mi South 16.1 mph - N/A Rain Light Rain
5:00 PM 33.8 °F 23.2 °F 30.2 °F 87% 30.04 in 6.2 mi South 17.3 mph - N/A   Overcast
5:30 PM 33.8 °F 23.9 °F 30.2 °F 87% 30.04 in 6.2 mi South 15.0 mph 26.5 mph N/A Rain Light Rain
6:00 PM 33.8 °F 23.9 °F 30.2 °F 87% 30.04 in 3.7 mi South 15.0 mph - N/A Snow Light Snow
6:30 PM 33.8 °F 24.3 °F 32.0 °F 93% 30.01 in 5.0 mi South 13.8 mph - N/A Snow Light Snow
7:00 PM 34 °F - 32 °F 88% 30.04 in 4 mi South 13.8 mph - - Snow Light Snow
7:00 PM 33.8 °F 24.3 °F 32.0 °F 93% 30.01 in 5.0 mi South 13.8 mph - N/A Snow Light Snow
7:30 PM 33.8 °F 24.3 °F 32.0 °F 93% 30.01 in 5.6 mi South 13.8 mph - N/A Rain Light Rain
8:00 PM 33.8 °F 25.8 °F 32.0 °F 93% 30.01 in 6.2 mi South 10.4 mph - N/A   Overcast
8:30 PM 35.6 °F 28.0 °F 32.0 °F 87% 29.98 in 6.2 mi SSW 10.4 mph - N/A   Overcast
9:00 PM 35.6 °F 27.5 °F 33.8 °F 93% 29.98 in 6.2 mi SSW 11.5 mph - N/A Rain Light Rain
9:30 PM 35.6 °F 27.5 °F 33.8 °F 93% 29.98 in 6.2 mi SSW 11.5 mph - N/A Rain Light Rain
10:00 PM 35.6 °F 27.1 °F 32.0 °F 87% 29.98 in 6.2 mi SSW 12.7 mph - N/A Rain Light Rain
10:30 PM 35.6 °F 26.6 °F 32.0 °F 87% 29.95 in 6.2 mi SSW 13.8 mph - N/A   Overcast
11:00 PM 35.6 °F 27.5 °F 33.8 °F 93% 29.95 in 6.2 mi SSW 11.5 mph - N/A Rain Light Rain
11:30 PM 35.6 °F 28.6 °F 33.8 °F 93% 29.95 in 6.2 mi SSW 9.2 mph - N/A Rain Light Rain